Regional Weather Roundup
Issued by NWS Upton, NY

Current Version | Previous Version | Graphics & Text | Print | Product List | Glossary Off
Versions: 1 2 3 4 5 6 7 8 9 10 11 12 13 14 15 16 17 18 19 20 21 22 23 24 25 26 27 28 29 30 31 32 33 34 35 36 37 38 39 40 41 42 43 44 45 46 47 48 49 50

000
ASUS41 KOKX 310004
RWROKX

REGIONAL WEATHER ROUNDUP
NATIONAL WEATHER SERVICE NEW YORK NY
800 PM EDT SUN AUG 30 2015

NOTE: "FAIR" INDICATES FEW OR NO CLOUDS BELOW 12,000 FEET WITH NO
SIGNIFICANT WEATHER AND/OR OBSTRUCTIONS TO VISIBILITY.

NYZ071-072-176-178-NJZ106-104-310100-
NEW YORK CITY METRO AREA


CITY           SKY/WX    TMP DP  RH WIND       PRES   REMARKS
CENTRAL PARK   PTCLDY    82  66  58 CALM      30.04R
LAGUARDIA APRT MOCLDY    83  67  58 S8        30.00S
KENNEDY INTL   MOCLDY    79  70  74 S12       30.02R
NEWARK/LIBERTY MOCLDY    87  62  43 W9        30.00S
BRNX BOT. GARD   N/A     79  66  65 E3        30.01S
TETERBORO      PTCLDY    83  65  54 SW3       30.00R
$$

NYZ177-179-078>081-310100-
LONG ISLAND NEW YORK

CITY           SKY/WX    TMP DP  RH WIND       PRES   REMARKS
FARMINGDALE    MOCLDY    78  70  76 SW10      30.03R
ISLIP          MOCLDY    76  68  76 SW10      30.02R
SHIRLEY        MOCLDY    76  68  76 SW7       30.04R
WESTHAMPTON    MOCLDY    75  70  84 SW6       30.05R
MONTAUK POINT    N/A     75  69  81 SW6       30.04S
$$

NYZ052-065-067-310100-
HUDSON VALLEY

CITY           SKY/WX    TMP DP  RH WIND       PRES   REMARKS
WHITE PLAINS   PTCLDY    74  68  81 CALM      30.03R
NEWBURGH       MOCLDY    75  70  83 CALM      30.04R
MONTGOMERY     MOCLDY    76  69  79 SW5       30.03R
POUGHKEEPSIE   PTCLDY    74  71  91 CALM      30.01R FOG
ALBANY         MOCLDY    77  63  61 S3        30.01R
$$

NJZ001-105-106-008-010-013-015-019>022-104-310100-
NEW JERSEY

CITY           SKY/WX    TMP DP  RH WIND       PRES   REMARKS
NEWARK/LIBERTY MOCLDY    87  62  43 W9        30.00S
TETERBORO      PTCLDY    83  65  54 SW3       30.00R
CALDWELL       MOCLDY    83  64  52 CALM      30.02R
MORRISTOWN     MOCLDY    84  66  54 W5        30.02R
SOMERVILLE     MOCLDY    78  67  68 S3        30.00R
SUSSEX         MOCLDY    74  72  93 CALM      30.03R FOG
ANDOVER          N/A     74  70  87 CALM      30.05R
TRENTON        MOCLDY    83  65  54 SW8       30.03R
MILLVILLE      CLOUDY    77  69  76 CALM      30.07R
ATLANTIC CITY  MOCLDY    78  65  63 S10       30.07R
WRIGHTSTOWN    PTCLDY    79  65  61 SW10      30.02R
TOMS RIVER     PTCLDY    79  64  61 SW7       30.05R
BELMAR         PTCLDY    82  63  51 SW9       30.04R
$$

PAZ047>061-062-071-310100-
EASTERN PENNSYLVANIA

CITY           SKY/WX    TMP DP  RH WIND       PRES   REMARKS
PHILADELPHIA   MOCLDY    84  65  52 SW12      30.05R
ALLENTOWN      MOCLDY    77  65  66 CALM      30.03S
SCRANTON       PTCLDY    80  63  55 SW5       30.04S
$$

CTZ002-004>006-009-010-012-RIZ004-006-007-MAZ004-011-015-310100-
SOUTHERN NEW ENGLAND
 IN CT

CITY           SKY/WX    TMP DP  RH WIND       PRES   REMARKS
BRADLEY INTL   MOCLDY    72  68  87 W5        30.00S
HARTFORD       MOCLDY    77  68  73 NE3       30.01R
DANBURY        PTCLDY    77  66  68 S5        30.04R
WTRBRY/OXFORD  CLEAR     77  64  65 SW6       30.05S
BRIDGEPORT     PTCLDY    80  69  69 S7        30.02R
MERIDEN        MOCLDY    80  66  62 S6        30.01R
NEW HAVEN      PTCLDY    78  68  71 SW8       30.02R
CHESTER        NOT AVBL
GROTON         PTCLDY    74  71  91 SW7       30.02R
WILLIMANTIC    LGT RAIN  76  70  82 NW3       30.03R

 IN RI

CITY           SKY/WX    TMP DP  RH WIND       PRES   REMARKS
PROVIDENCE     PTCLDY    78  66  66 SW9       30.01R
BLOCK ISLAND   PTCLDY    73  70  88 SW13      30.04R
WESTERLY       PTCLDY    75  68  78 SW5       30.03R

 IN MA

CITY           SKY/WX    TMP DP  RH WIND       PRES   REMARKS
BOSTON         MOCLDY    82  61  48 W6        30.00R
WORCESTER      MOCLDY    74  62  66 W6        30.05R
WESTFIELD      MOCLDY    76  66  71 CALM      30.01R
PROVINCETOWN   PTCLDY    73  63  68 SW12      30.01R
NANTUCKET      PTCLDY    72  69  90 SW10      30.03R
$$

ANZ330-335-338-340-345-350-353-355-310100-
COASTAL MARINE OBSERVATIONS


STATION/POSITION TIME  SKY/WX   TEMP    WIND        PRES    VSBY  WAVE
                                AIR SEA DIR/SP/G                  HT/PER
                 (UTC)          (F)     (DEG/KT/KT) (MB)    (MI)  (FT/S)
NY HARB ENTRANCE 2250            78 76  190/ 14/ 16 1015.8          3/10
4S FIRE IS       NOT AVBL
20S FIRE ISLAND  2250            76 75  210/ 14/ 16 1016.6          3/10
GREAT SOUTH BAY  2300            76 78  210/ 10/ 17   N/A
23SW MTP         2350            75 73  230/ 14/ 16 1016.6          3/11
HUDSON CANYON    NOT AVBL
KINGS POINT      NOT AVBL
EXECUTION ROCKS  2300            79     190/  6/  8   N/A
CENTRAL LI SOUND NOT AVBL
EASTERN LI SOUND 2300            74 71  200/  8/ 10   N/A
ROBBINS REEF     NOT AVBL
$$


>>>>>>>>>>>>>>>>>>>>>>>>>>>> KEY <<<<<<<<<<<<<<<<<<<<<<<<<<<
>                                                          <
>     SKY/WX - SKY CONDITION/PRESENT WEATHER               <
>     TMP    - TEMPERATURE IN FAHRENHEIT                   <
>     DP     - DEWPOINT IN FAHRENHEIT                      <
>     RH     - RELATIVE HUMIDITY IN PERCENT                <
>     WIND   - DIRECTION AND SPEED IN MPH                  <
>     PRES   - MEAN SEA LEVEL PRESSURE IN INCHES OF HG     <
>     WCI    - WIND CHILL INDEX                            <
>     VSB    - VISIBILITY IN MILES                         <
>     HX     - HEAT INDEX                                  <
>     TC     - TEMPERATURE IN CELSIUS                      <
>     VRB    - VARIABLE WIND DIRECTION                     <
>                                                          <
>>>>>>>>>>>>>>>>>>>>>>>>>>>> KEY <<<<<<<<<<<<<<<<<<<<<<<<<<<




USA.gov is the U.S. government's official web portal to all federal, state and local government web resources and services.